Home   Weather   Makati   Past weeks

Flag for Philippines Past Weather in Makati, Philippines — Yesterday and Last 2 Weeks

Now
77 °F

Passing clouds.


Feels Like: 79 °F
Forecast: 73 / 82 °F
Wind: 8 mph from East

Location: National Airport

Current Time: Jan 17, 2017 at 6:21:35 am

Latest Report: Jan 17, 2017 at 5:00 am


Visibility: N/A

Pressure: N/A

Humidity: 74%

Dew Point: 68 °F

Location of MakatiLocation

Past Weather in Makati — Graph

°F

Makati Temperature Yesterday

Maximum temperature yesterday: 82 °F (at 11:00 am)
Minimum temperature yesterday: 77 °F (at 3:00 am)
Average temperature yesterday: 79 °F

High & Low Weather Summary for the Past Weeks

 TemperatureHumidityPressure
High90 °F (Jan 3, 12:00 pm)100% (Jan 5, 5:00 am)29.95 "Hg (Jan 5, 5:00 am)
Low72 °F (Jan 8, 3:00 am)41% (Jan 6, 1:00 pm)29.74 "Hg (Jan 7, 2:00 pm)
Average80 °F76%29.84 "Hg
* Reported Jan 2 5:00 am — Jan 17 5:00 am, Makati, Weather by CustomWeather, © 2017

Note: Actual official high and low records may vary slightly from our data, if they occured in-between our weather recording intervals... More about our weather records

Advertising

Makati Weather History for the Previous 24 Hours

Scroll right to see more
 ConditionsComfort  
Time TempWeatherWind HumidityBarometerVisibility
5:00 am
Tue, Jan 17
77 °FPassing clouds.8 mph74%N/AN/A
4:00 am77 °FOvercast.6 mph74%29.89 "HgN/A
3:00 am77 °FOvercast.6 mph74%29.89 "HgN/A
2:00 am77 °FPassing clouds.5 mph69%29.92 "HgN/A
1:00 am77 °FPassing clouds.5 mph65%29.92 "HgN/A
12:00 am77 °FPassing clouds.5 mph69%29.95 "HgN/A
11:00 pm
Mon, Jan 16
77 °FPassing clouds.3 mph74%29.95 "HgN/A
10:00 pm79 °FPassing clouds.5 mph70%29.95 "HgN/A
9:00 pm79 °FPartly cloudy.7 mph65%29.95 "HgN/A
8:00 pm79 °FPassing clouds.7 mph65%29.95 "HgN/A
7:00 pm79 °FPassing clouds.8 mph65%29.92 "HgN/A
6:00 pm79 °FPartly cloudy.7 mph70%29.92 "HgN/A
5:00 pm81 °FBroken clouds.13 mph66%29.89 "HgN/A
4:00 pm82 °FBroken clouds.13 mph62%29.86 "HgN/A
3:00 pm82 °FBroken clouds.12 mph62%29.86 "HgN/A
2:00 pm81 °FPartly sunny.12 mph66%29.86 "HgN/A
1:00 pm81 °FPartly sunny.8 mph66%29.89 "HgN/A
12:00 pm81 °FMostly cloudy.10 mph70%29.89 "HgN/A
11:00 am82 °FBroken clouds.6 mph62%29.92 "HgN/A
10:00 am81 °FBroken clouds.6 mph66%29.92 "HgN/A
9:00 am81 °FBroken clouds.3 mph66%29.92 "HgN/A
8:00 am79 °FBroken clouds.3 mph70%29.92 "HgN/A
7:00 am79 °FBroken clouds.2 mph74%29.89 "HgN/A
6:00 am79 °FPartly cloudy.2 mph79%29.89 "HgN/A
Weather by CustomWeather, © 2017

See weather overviewHow to use our weather pages